Location: Bęczków
(50.8761°N, 20.8028°E)
Time: 01:54:47
(UTC+02:00)

Envisat - Pass Details

Date: 25 March 2019
Orbit: 764 x 766 km, 98.2° (Epoch: 22 April)

Event Time Altitude Azimuth Distance (km) Brightness Sun altitude
Rises 19:28:07 0° 210° (SSW) 3,224 6.3 -14.7°
Reaches altitude 10° 19:31:09 10° 230° (SW) 2,303 5.8 -15.1°
Maximum altitude 19:34:33 18° 272° (W) 1,824 5.9 -15.6°
Drops below altitude 10° 19:37:58 10° 314° (NW) 2,314 6.6 -16.1°
Sets 19:41:03 0° 334° (NNW) 3,246 7.1 -16.6°
